Location: Gro�sch�nbrunn
(49.5760°N, 11.8868°E)
Time: 04:42:56
(UTC+00:00)

H-2A R/B - Pass Details

Date: 18 September 2020
Orbit: 734 x 836 km, 98.2° (Epoch: 20 October)

Event Time Altitude Azimuth Distance (km) Brightness Sun altitude
Rises 19:14:19 0° 198° (SSW) 3,161 5.1 -18.9°
Reaches altitude 10° 19:16:55 10° 211° (SSW) 2,252 4.5 -19.3°
Maximum altitude 19:21:02 26° 267° (W) 1,448 4.0 -19.9°
Drops below altitude 10° 19:25:17 10° 324° (NW) 2,309 5.4 -20.5°
Sets 19:27:59 0° 337° (NNW) 3,258 6.1 -20.9°
